When you browse on this site, cookies collect data to enhance your experience and personalize the content and advertising you see.
Visit our Privacy Policy to learn more. By continuing to use the site, you agree to this use of cookies and data.
  • In Austria
  • List of Countries
  • For 7 days
  • Water Temperature
  • Satellite Maps
  • Weather Map
  • News
  • Weather Widgets
  • user-avatar
    Login

    Hourly Weather Chysten'ke

    Today, 17 December, Monday

    Time Temperature Precipitation Wind Pressure Humidity
    00:00 -1°C° 0 mm 6 mps 738 mmHg 83%
    01:00 -1°C° 0 mm 6 mps 738 mmHg 83%
    02:00 -1°C° 0 mm 6 mps 737 mmHg 82%
    03:00 -2°C° 0 mm 6 mps 737 mmHg 82%
    04:00 -2°C° 0 mm 6 mps 737 mmHg 82%
    05:00 -2°C° 0 mm 6 mps 737 mmHg 82%
    06:00 -2°C° 0 mm 6 mps 736 mmHg 82%
    07:00 -2°C° 0 mm 6 mps 736 mmHg 82%
    08:00 -2°C° 0 mm 6 mps 736 mmHg 82%
    09:00 -1°C° 0 mm 6 mps 736 mmHg 79%
    10:00 +1°C° 0 mm 6 mps 736 mmHg 77%
    11:00 +1°C° 0 mm 6 mps 736 mmHg 74%
    12:00 +1°C° 0 mm 6 mps 736 mmHg 74%
    13:00 +2°C° 0 mm 6 mps 736 mmHg 74%
    14:00 +2°C° 0 mm 6 mps 736 mmHg 74%
    15:00 +1°C° 0 mm 6 mps 736 mmHg 76%
    16:00 -1°C° 0 mm 6 mps 736 mmHg 78%
    17:00 -1°C° 0 mm 6 mps 736 mmHg 80%
    18:00 0°C° 0 mm 5 mps 736 mmHg 80%
    19:00 -1°C° 0 mm 5 mps 736 mmHg 80%
    20:00 -1°C° 0 mm 5 mps 736 mmHg 80%
    21:00 -1°C° 0 mm 5 mps 736 mmHg 80%
    22:00 -1°C° 0 mm 5 mps 737 mmHg 81%
    23:00 -1°C° 0 mm 5 mps 737 mmHg 81%

    Tomorrow, 18 December, Tuesday

    Time Temperature Precipitation Wind Pressure Humidity
    00:00 -1°C° 0 mm 5 mps 737 mmHg 81%
    01:00 -1°C° 0 mm 5 mps 737 mmHg 82%
    02:00 -1°C° 0 mm 5 mps 737 mmHg 82%
    03:00 -1°C° 0 mm 5 mps 737 mmHg 83%
    04:00 -1°C° 0 mm 5 mps 737 mmHg 83%
    05:00 -1°C° 0 mm 5 mps 737 mmHg 84%
    06:00 -1°C° 0.1 mm 5 mps 737 mmHg 84%
    07:00 -1°C° 0.1 mm 5 mps 737 mmHg 84%
    08:00 -1°C° 0.1 mm 5 mps 738 mmHg 84%
    09:00 -1°C° 0.1 mm 5 mps 738 mmHg 83%
    10:00 0°C° 0.1 mm 5 mps 738 mmHg 81%
    11:00 0°C° 0.1 mm 5 mps 738 mmHg 79%
    12:00 0°C° 0.1 mm 5 mps 738 mmHg 80%
    13:00 0°C° 0.1 mm 5 mps 738 mmHg 80%
    14:00 +1°C° 0.1 mm 5 mps 738 mmHg 80%
    15:00 0°C° 0.1 mm 5 mps 738 mmHg 82%
    16:00 0°C° 0.1 mm 5 mps 738 mmHg 85%
    17:00 -1°C° 0.1 mm 5 mps 738 mmHg 87%
    18:00 -1°C° 0 mm 5 mps 738 mmHg 88%
    19:00 -1°C° 0 mm 5 mps 738 mmHg 88%
    20:00 -1°C° 0 mm 5 mps 738 mmHg 89%
    21:00 -1°C° 0 mm 5 mps 738 mmHg 90%
    22:00 -1°C° 0 mm 5 mps 738 mmHg 90%
    23:00 -1°C° 0 mm 5 mps 738 mmHg 91%

    Day after tomorrow, 19 December, Wednesday

    Time Temperature Precipitation Wind Pressure Humidity
    00:00 -1°C° 0 mm 5 mps 738 mmHg 92%
    01:00 0°C° 0 mm 5 mps 738 mmHg 92%
    02:00 -1°C° 0 mm 6 mps 738 mmHg 93%
    03:00 -1°C° 0 mm 6 mps 737 mmHg 93%
    04:00 -1°C° 0 mm 6 mps 737 mmHg 94%
    05:00 -1°C° 0 mm 6 mps 737 mmHg 94%
    06:00 -1°C° 0 mm 6 mps 737 mmHg 94%
    07:00 -1°C° 0 mm 6 mps 737 mmHg 93%
    08:00 -1°C° 0 mm 6 mps 737 mmHg 93%
    09:00 +1°C° 0 mm 6 mps 737 mmHg 92%
    10:00 +1°C° 0 mm 6 mps 737 mmHg 90%
    11:00 +2°C° 0 mm 6 mps 737 mmHg 89%
    12:00 +2°C° 0 mm 6 mps 737 mmHg 88%
    13:00 +2°C° 0 mm 7 mps 736 mmHg 88%
    14:00 +2°C° 0 mm 7 mps 736 mmHg 87%
    15:00 0°C° 0.2 mm 7 mps 736 mmHg 88%
    16:00 0°C° 0.2 mm 7 mps 736 mmHg 89%
    17:00 0°C° 0.2 mm 7 mps 736 mmHg 89%
    18:00 0°C° 0.7 mm 7 mps 736 mmHg 90%
    19:00 0°C° 0.7 mm 7 mps 736 mmHg 90%
    20:00 0°C° 0.7 mm 7 mps 737 mmHg 90%
    21:00 +1°C° 0.5 mm 6 mps 736 mmHg 90%
    22:00 +1°C° 0.5 mm 6 mps 736 mmHg 90%
    23:00 +1°C° 0.5 mm 6 mps 736 mmHg 91%

    20 December, Thursday

    Time Temperature Precipitation Wind Pressure Humidity
    00:00 +1°C° 0.5 mm 6 mps 737 mmHg 91%
    01:00 +1°C° 0.5 mm 6 mps 737 mmHg 91%
    02:00 +1°C° 0.5 mm 5 mps 737 mmHg 91%
    03:00 +1°C° 0.6 mm 5 mps 737 mmHg 91%
    04:00 +1°C° 0.6 mm 5 mps 737 mmHg 92%
    05:00 +1°C° 0.6 mm 5 mps 737 mmHg 92%
    06:00 +1°C° 0.4 mm 5 mps 738 mmHg 92%
    07:00 +1°C° 0.4 mm 5 mps 738 mmHg 92%
    08:00 +1°C° 0.4 mm 5 mps 738 mmHg 92%
    09:00 +1°C° 0.3 mm 5 mps 739 mmHg 92%
    10:00 +1°C° 0.3 mm 5 mps 739 mmHg 91%
    11:00 +1°C° 0.3 mm 4 mps 739 mmHg 91%
    12:00 +1°C° 0.1 mm 4 mps 739 mmHg 91%
    13:00 +1°C° 0.1 mm 4 mps 739 mmHg 91%
    14:00 +1°C° 0.1 mm 4 mps 739 mmHg 91%
    15:00 +1°C° 0.1 mm 4 mps 739 mmHg 92%
    16:00 +1°C° 0.1 mm 4 mps 740 mmHg 93%
    17:00 +1°C° 0.1 mm 4 mps 740 mmHg 94%
    18:00 +1°C° 0.1 mm 4 mps 740 mmHg 94%
    19:00 +1°C° 0.1 mm 4 mps 740 mmHg 94%
    20:00 0°C° 0.1 mm 4 mps 741 mmHg 94%
    21:00 0°C° 0.1 mm 4 mps 741 mmHg 94%
    22:00 +1°C° 0.1 mm 3 mps 741 mmHg 95%
    23:00 +1°C° 0.1 mm 3 mps 741 mmHg 95%

    21 December, Friday

    Time Temperature Precipitation Wind Pressure Humidity
    00:00 +1°C° 0.1 mm 3 mps 741 mmHg 95%
    01:00 +2°C° 0.1 mm 3 mps 741 mmHg 95%
    02:00 +2°C° 0.1 mm 3 mps 741 mmHg 96%
    03:00 +2°C° 0.1 mm 3 mps 741 mmHg 96%
    04:00 +2°C° 0.1 mm 2 mps 740 mmHg 96%
    05:00 +2°C° 0.1 mm 2 mps 740 mmHg 96%
    06:00 +2°C° 0 mm 2 mps 741 mmHg 96%
    07:00 +2°C° 0 mm 2 mps 741 mmHg 96%
    08:00 +2°C° 0 mm 2 mps 741 mmHg 96%
    09:00 +3°C° 0 mm 2 mps 741 mmHg 94%
    10:00 +3°C° 0 mm 2 mps 741 mmHg 91%
    11:00 +5°C° 0 mm 1 mps 741 mmHg 89%
    12:00 +5°C° 0 mm 1 mps 741 mmHg 88%
    13:00 +4°C° 0 mm 2 mps 740 mmHg 88%
    14:00 +4°C° 0 mm 2 mps 740 mmHg 88%
    15:00 +5°C° 0 mm 1 mps 740 mmHg 89%
    16:00 +5°C° 0 mm 1 mps 740 mmHg 91%
    17:00 +4°C° 0 mm 1 mps 740 mmHg 93%
    18:00 +4°C° 0.1 mm 1 mps 740 mmHg 93%
    19:00 +4°C° 0.1 mm 1 mps 740 mmHg 94%
    20:00 +4°C° 0.1 mm 1 mps 740 mmHg 95%
    21:00 +4°C° 0 mm 1 mps 740 mmHg 95%
    22:00 +4°C° 0 mm 1 mps 739 mmHg 95%
    23:00 +4°C° 0 mm 1 mps 739 mmHg 95%

    22 December, Saturday

    Time Temperature Precipitation Wind Pressure Humidity
    00:00 +4°C° 0 mm 1 mps 739 mmHg 95%
    01:00 +4°C° 0 mm 1 mps 738 mmHg 95%
    02:00 +3°C° 0 mm 0 mps 738 mmHg 95%
    03:00 +4°C° 0.1 mm 1 mps 738 mmHg 95%
    04:00 +3°C° 0.1 mm 1 mps 737 mmHg 95%
    05:00 +3°C° 0.1 mm 1 mps 737 mmHg 95%
    06:00 +3°C° 0.2 mm 1 mps 737 mmHg 94%
    07:00 +3°C° 0.2 mm 1 mps 737 mmHg 94%
    08:00 +3°C° 0.2 mm 1 mps 737 mmHg 94%
    09:00 +4°C° 0.5 mm 1 mps 737 mmHg 93%
    10:00 +4°C° 0.5 mm 1 mps 737 mmHg 92%
    11:00 +4°C° 0.5 mm 1 mps 737 mmHg 91%
    12:00 +5°C° 0.3 mm 1 mps 737 mmHg 90%
    13:00 +5°C° 0.3 mm 1 mps 736 mmHg 89%
    14:00 +5°C° 0.3 mm 1 mps 736 mmHg 88%
    15:00 +5°C° 0.2 mm 1 mps 736 mmHg 90%
    16:00 +4°C° 0.2 mm 1 mps 737 mmHg 92%
    17:00 +4°C° 0.2 mm 1 mps 737 mmHg 94%
    18:00 +3°C° 0.3 mm 2 mps 737 mmHg 94%
    19:00 +3°C° 0.3 mm 2 mps 737 mmHg 95%
    20:00 +2°C° 0.3 mm 2 mps 737 mmHg 95%
    21:00 +1°C° 0.3 mm 3 mps 738 mmHg 95%
    22:00 +1°C° 0.3 mm 3 mps 738 mmHg 95%
    23:00 +1°C° 0.3 mm 3 mps 738 mmHg 95%
    Show more